Regional Weather Roundup
Issued by NWS Newport/Morehead, NC

Current Version | Previous Version | Graphics & Text | Print | Product List | Glossary On
Versions: 1 2 3 4 5 6 7 8 9 10 11 12 13 14 15 16 17 18 19 20 21 22 23 24 25 26 27 28 29 30 31 32 33 34 35 36 37 38 39 40 41 42 43 44 45 46 47 48 49 50
000 ASUS42 KMHX 260125 RWRMHX WEATHER ROUNDUP FOR EASTERN NORTH CAROLINA NATIONAL WEATHER SERVICE NEWPORT/MOREHEAD CITY NC 900 PM EDT MON MAY 25 2015 NOTE: "FAIR" INDICATES FEW OR NO CLOUDS BELOW 12,000 FEET WITH NO SIGNIFICANT WEATHER AND/OR OBSTRUCTIONS TO VISIBILITY NCZ015>017-031-032-045>047-102-103-260200- NORTH COAST CITY SKY/WX TMP DP RH WIND PRES REMARKS EDENTON CLEAR 72 62 72 S10G17 30.30R ELIZABETH CITY CLEAR 71 60 68 S9 30.29S KITTY HAWK CLEAR 72 61 68 S5 30.30S MANTEO CLEAR 73 63 70 S13 30.32R $$ NCZ045>047-081-094-103-104-260200- CENTRAL COAST CITY SKY/WX TMP DP RH WIND PRES REMARKS FRISCO CLEAR 73 61 65 S12 30.32S SWANQUARTER N/A 73 N/A N/A S13 30.30R $$ NCZ095-097-098-100-101-260200- SOUTHERN COAST CITY SKY/WX TMP DP RH WIND PRES REMARKS BEAUFORT CLEAR 71 63 75 SE5 30.31S CEDAR ISLAND N/A 70 N/A N/A S3 30.36S JACKSONVILLE CLEAR 71 61 70 S5 30.29F PINEY ISLAND CLEAR N/A N/A N/A S5 30.31S WILMINGTON CLEAR 73 63 70 SE5 30.29S $$ NCZ011>013-027>030-043-044-078>080-089-090>093-098-260200- COASTAL PLAIN CITY SKY/WX TMP DP RH WIND PRES REMARKS AHOSKIE CLEAR 70 60 69 SE6 30.27S CLINTON CLEAR 72 63 73 CALM 30.29R ELIZABETHTOWN CLEAR 72 61 67 S5 30.28S GOLDSBORO NOT AVBL GREENVILLE CLEAR 73 61 64 S9 30.29R HAVELOCK CLEAR 69 61 75 SE5 30.32S KENANSVILLE CLEAR 70 59 69 CALM 30.30S KINSTON NOT AVBL NEW BERN CLEAR 70 60 70 SE3 30.31F RICHLANDS CLEAR 68 57 68 CALM 30.31R ROCKY MOUNT CLEAR 75 59 57 S7 30.27R WASHINGTON CLEAR 72 60 67 S7 30.30R WHITEVILLE CLEAR 72 63 74 CALM 30.28S $$ AMZ130-135-150-152-154-156-158-170-250-252-270-ANZ085-086-088-633-658-670-260200- MARINE OBSERVATIONS STATION/POSITION TIME TEMP WIND PRES WAVE SWELL AIR SEA DIR/SP/G HT/PER HT/PER (UTC) (F) (DEG/KT/KT) (MB) (FT/S) (FT/S) CHESAPEAKE LIGHT 0100 68 170/ 22/ 24 1025.5 64 E VA BEACH 0050 67 65 160/ 8/ 8 1026.3 1/ 8 2/ 8 DUCK 0100 72 65 170/ 13/ 17 1025.0 2 E DUCK 0111 65 N/A 1/ 7 OREGON INLET 0100 73 77 180/ 10/ 12 1026.5 13E OREGON INLT 0100 69 N/A 1/ 8 HATTERAS CG 0100 74 76 160/ 11/ 14 1026.3 DIAMOND BUOY 0050 74 77 160/ 12/ 16 1026.7 2/ 7 2/ 7 CAPE LOOKOUT 0100 74 150/ 8/ 8 1026.2 BEAUFORT LAB 0100 74 76 170/ 7/ 9 1025.5 27 SE WRIGHTSVLE 0100 72 77 160/ 10/ 12 N/A 5 SE WRIGHTSVLE 0008 75 77 170/ 8/ 12 1025.9 225 S CAPE HAT 0050 75 74 130/ 14/ 16 1026.3 3/ 7 2/ 7 41 SE CHARLESTON 0050 76 75 90/ 14/ 16 1024.0 4/ 6 2/ 6 $$

USA.gov is the U.S. government's official web portal to all federal, state and local government web resources and services.